www.pogodaiklimat.ru
ПОГОДА в Трут-ор-Консекуэнсесе
Время
и дата
21:53 28.01
22:53 28.01
23:53 28.01
00:53 29.01
01:53 29.01
02:53 29.01
03:53 29.01
04:53 29.01
05:53 29.01
06:53 29.01
07:53 29.01
08:53 29.01
09:53 29.01
10:53 29.01
11:53 29.01
12:53 29.01
13:53 29.01
14:53 29.01
15:53 29.01
16:53 29.01
17:53 29.01
18:53 29.01
19:53 29.01
20:53 29.01
21:53 29.01
22:53 29.01
23:53 29.01
00:53 30.01
01:53 30.01
02:53 30.01
03:53 30.01
04:53 30.01
05:53 30.01
06:53 30.01
07:53 30.01
08:53 30.01
09:53 30.01
10:53 30.01
11:53 30.01
12:53 30.01
13:53 30.01
14:53 30.01
15:53 30.01
16:53 30.01
17:53 30.01
18:53 30.01
19:53 30.01
20:53 30.01
Ветер
(напр.,м/с)
Видим. Явления Облачность Т
(С)
Тd
(С)
f
(%)
Тe
(С)
Тes
(С)
Комфортность P
(гПа)
Po
(гПа)
Тmin
(С)
Tmax
(С)
R
(мм)
R24
(мм)
S
(см)
СЗ 3 16 км ясно +5.6 -11.7 28 +3 +3 1013.7 849.6
СЗ 3 16 км ясно +3.3 -10.0 37 0 0 1013.6 849.6 +2.2 +13.3
С 2 16 км ясно +2.8 -10.6 37 +1 +1 1013.0 849.3
З 5 16 км ясно +0.6 -9.4 47 -5 -5 1012.7 849.0
З 4 16 км ясно 0.0 -9.4 49 -5 -5 1012.2 849.0
штиль 0 16 км ясно -2.8 -8.9 63 -3 -3 1012.4 849.0
З 2 16 км ясно -1.1 -10.0 51 -4 -4 1012.0 849.0
З 4 16 км ясно -0.6 -10.6 47 -5 -5 1011.9 848.8 -2.8 +4.4
СЗ 2 16 км ясно -1.7 -11.1 49 -5 -5 1012.7 848.5
штиль 0 16 км ясно -1.1 -11.1 47 -1 -1 1012.9 848.8
З 3 16 км ясно +0.6 -9.4 47 -3 -3 1013.8 849.3
штиль 0 16 км ясно +3.9 -11.1 33 +4 +5 1014.2 849.9
Ю 3 16 км ясно +6.1 -10.6 29 +4 +6 1013.6 849.9
Ю 4 16 км ясно +9.4 -7.2 30 +7 +11 1012.6 849.3 -3.3 +9.4
Ю 9
{16}
16 км ясно +13.9 -6.7 23 +12 +12 1010.2 847.9
Ю 10
{14}
16 км ясно +14.4 -6.7 23 +12 +13 1009.0 846.8
ЮЗ 10
{13}
16 км ясно +15.0 -8.3 19 +13 +13 1007.9 845.9
Ю 9
{14}
16 км ясно +15.6 -11.7 14 +14 +15 1007.8 845.4
Ю 9
{13}
16 км ясно +15.6 -13.9 12 +14 +14 1007.9 845.6
ЮЗ 9
{12}
16 км ясно +14.4 -18.3 9 +12 +12 1008.5 846.2 +9.4 +16.1
Ю 7 16 км ясно +11.7 -12.8 17 +9 +9 1010.3 847.1
ЮЗ 5 16 км ясно +11.1 -13.3 17 +9 +9 1011.2 847.6
Ю 4 16 км ясно +8.9 -12.8 20 +7 +7 1011.7 848.2
Ю 3 16 км ясно +6.7 -11.7 26 +5 +5 1011.7 848.2
Ю 3 16 км ясно +6.1 -11.1 28 +4 +4 1012.1 848.8
Ю 5 16 км ясно +6.1 -11.1 28 +3 +3 1011.7 848.8 +5.6 +14.4
З 3 16 км ясно +5.6 -10.6 30 +3 +3 1010.8 848.8
Ю 4 16 км ясно +5.0 -10.0 33 +2 +2 1010.8 848.8
З 3 16 км ясно +3.9 -9.4 37 +1 +1 1010.8 848.5
СЗ 4 16 км ясно 0.0 -8.9 51 -5 -5 1011.3 848.5
СЗ 3 16 км ясно -0.6 -10.6 47 -5 -5 1011.6 848.8
З 4 16 км ясно -1.1 -9.4 53 -6 -6 1011.8 848.8 -1.7 +7.8
СЗ 4 16 км ясно +0.6 -10.0 45 -4 -4 1012.5 849.0
З 4 16 км ясно 0.0 -10.6 45 -5 -5 1012.9 849.3
ЮЗ 4 16 км ясно +2.8 -8.9 42 -1 -1 1013.4 849.9
ЮЗ 3 16 км ясно +6.1 -8.3 35 +4 +5 1013.8 850.2
Ю 3 16 км ясно +9.4 -8.3 28 +8 +10 1013.5 850.5
Ю 7
{12}
16 км ясно +12.2 -10.6 19 +10 +12 1012.5 849.9 -1.1 +12.2
Ю 9
{13}
16 км ясно +14.4 -15.0 12 +12 +13 1010.8 848.8
Ю 12
{16}
16 км ясно +15.6 -15.6 10 +13 +13 1009.1 847.6
Ю 9
{17}
16 км ясно +16.7 -19.4 7 +15 +16 1008.2 846.8
ЮЗ 11
{18}
16 км ясно +16.7 -19.4 7 +15 +15 1008.6 846.5
ЮЗ 9
{13}
16 км ясно +16.7 -18.3 8 +15 +16 1008.6 846.5
Ю 8 16 км ясно +15.0 -18.3 9 +13 +14 1009.3 846.8 +12.2 +16.7
ЮЗ 6 16 км ясно +13.3 -17.2 10 +12 +12 1009.9 847.3
ЮЗ 3 16 км ясно +11.1 -16.1 13 +10 +10 1010.9 847.6
З 4 16 км ясно +6.1 -12.8 24 +3 +3 1011.4 847.6
З 5 16 км ясно +4.4 -12.8 27 +1 +1 1011.1 847.9
Местоположение метеостанции Truth Or Consequences Municipal Airport: широта 33.2367 долгота -107.2681 высота над уровнем моря 1478 м.
В архиве по умолчанию представлена погода в Трут-ор-Консекуэнсесе за последние 1-2 суток. Обновление информации о фактической погоде в базе происходит ежечасно! Архивные данные за месяц целиком и за предыдущие месяцы Вы можете получить, выбрав интересующий диапазон дат из раскрывающегося списка и нажав кнопку "Ввод!".
Внимание! Архив погоды МЕТАР в базе сайта по станциям, не включенным в климатический монитор, хранится не более 60 дней. Нет смысла пытаться выбрать более раннюю дату.
*Определитесь, кто Вы:
Внимание! Время в таблицах - местное (без учета летнего времени). Для получения всемирного времени необходимо вычесть поправку, которая равна -7 ч.
Смотрите также архив погоды в соседних городах и на ближайших метеорологических станциях:
Партнеры нашего сайта:      
Пояснения к столбцам:
  • Ветер - указаны скорость ветра в м/с - средняя за 10 мин, порывы в срок и между сроками (в фигурных скобках) и направление, откуда дует ветер: С - северный,
  • СВ - северо-восточный, В - восточный, ЮВ - юго-восточный, Ю - южный, ЮЗ - юго-западный, З - западный, СЗ - северо-западный.
  • Видимость - горизонтальная дальность видимости в метрах или километрах. При видимости от 1 до 10 км при отсутствии осадков обычно наблюдается дымка, при ухудшении видимости до 1 км и менее - туман. В сухую погоду видимость может ухудшаться дымом, пылью или мглою.
  • Явления - указаны атмосферные явления, наблюдавшиеся в срок или в последний час перед сроком; фигурными скобками обозначены явления, наблюдавшиеся между сроками (за 1-3 часа до срока); квадратными скобками обозначены град или гололедные отложения с указанием их диаметра в мм.
  • Облачность - указаны через наклонную черту общая и нижняя облачность в баллах и высота нижней границы облаков в метрах; квадратными скобками обозначены формы облаков: Ci - перистые, Cs - перисто-слоистые, Cc - перисто-кучевые, Ac - высококучевые, As - высокослоистые, Sc - слоисто-кучевые, Ns - слоисто-дождевые, Cu - кучевые, Cb - кучево-дождевые. Подробнее классификацию облаков см. в Атласе облаков (PDF).
  • T - Температура воздуха - температура, измеренная на высоте 2 м над землей.
  • Td - Температура точки росы - температура, при понижении до которой содержащийся в воздухе водяной пар достигнет насыщения.
  • f - Относительная влажность воздуха - влажноcть воздуха, измеренная на высоте 2 м над землей.
  • Te - Эффективная температура - температура, которую ощущает одетый по сезону человек в тени. Характеристика душности погоды. При расчете учитывается влияние влажности воздуха и скорости ветра на теплоощущения человека.
  • Tes - Эффективная температура на солнце - температура, которую ощущает человек, с поправкой на солнечный нагрев. Характеристика знойности погоды. Зависит от высоты солнца над горизонтом, облачности и скорости ветра. Ночью, в пасмурную погоду, а также при ветре 12 м/с и более поправка равна нулю.
  • P - Атмосферное давление - приведенное к уровню моря атмосферное давление.
  • Po - Атмосферное давление - измеренное на уровне метеостанции атмосферное давление.
  • Tmin - Минимальная температура - минимум температуры воздуха на высоте 2 м над землей.
  • Tmax - Максимальная температура - максимум температуры воздуха на высоте 2 м над землей.
  • R - Количество осадков - Количество выпавших осадков за период времени, мм. При наведении курсора мыши на число - период времени, за который выпало указанное количество осадков.
  • R24 - Количество осадков - Количество выпавших осадков за 24 часа, мм.
  • S - Снежный покров - Высота снежного покрова, см. При наведении курсора мыши на число - состояние снежного покрова и степень покрытия местности в баллах.